This is the latest recevied weather packets stored in our database for station/object K2CCS. If no packets are shown the sender has not sent any weather packets the latest 10 day(s).
| Time | Temp. | Humidity | Pressure | Rain* | Wind** | Luminosity | Snow |
|---|---|---|---|---|---|---|---|
| 1777344549 | 13.89° C | 62% | 1026.5 hPa | 0 mm | - | 0 W/m² | - |
| 1777344247 | 13.89° C | 62% | 1026.3 hPa | 0 mm | - | 0 W/m² | - |
| 1777343944 | 13.89° C | 61% | 1026.6 hPa | 0 mm | - | 0 W/m² | - |
| 1777343642 | 13.89° C | 62% | 1026.4 hPa | 0 mm | - | 0 W/m² | - |
| 1777343338 | 13.89° C | 62% | 1026.4 hPa | 0 mm | - | 0 W/m² | - |
| 1777343036 | 13.33° C | 63% | 1026.4 hPa | 0 mm | - | 0 W/m² | - |
| 1777342733 | 13.33° C | 63% | 1026.3 hPa | 0 mm | - | 0 W/m² | - |
| 1777342430 | 13.33° C | 61% | 1026.3 hPa | 0 mm | - | 0 W/m² | - |
| 1777342127 | 13.89° C | 61% | 1026.3 hPa | 0 mm | - | 0 W/m² | - |
| 1777341823 | 14.44° C | 60% | 1026 hPa | 0 mm | - | 0 W/m² | - |
| 1777341520 | 14.44° C | 59% | 1026.3 hPa | 0 mm | - | 0 W/m² | - |
| 1777341216 | 14.44° C | 59% | 1026.3 hPa | 0 mm | - | 0 W/m² | - |
| 1777340913 | 15° C | 58% | 1026.3 hPa | 0 mm | - | 0 W/m² | - |
| 1777340612 | 15° C | 58% | 1026.3 hPa | 0 mm | - | 0 W/m² | - |
| 1777340308 | 15° C | 57% | 1026.2 hPa | 0 mm | - | 0 W/m² | - |
| 1777340005 | 15° C | 56% | 1026.4 hPa | 0 mm | - | 0 W/m² | - |
| 1777339703 | 15.56° C | 54% | 1026.3 hPa | 0 mm | - | 0 W/m² | - |
| 1777339400 | 15.56° C | 55% | 1026.1 hPa | 0 mm | - | 0 W/m² | - |
| 1777339098 | 16.11° C | 53% | 1026.3 hPa | 0 mm | - | 0 W/m² | - |
| 1777338795 | 16.11° C | 53% | 1026.1 hPa | 0 mm | - | 0 W/m² | - |
| 1777338492 | 16.67° C | 52% | 1026.2 hPa | 0 mm | - | 0 W/m² | - |
| 1777338189 | 16.67° C | 51% | 1026.1 hPa | 0 mm | - | 0 W/m² | - |
| 1777337885 | 16.67° C | 50% | 1025.9 hPa | 0 mm | - | 0 W/m² | - |
| 1777337582 | 17.22° C | 49% | 1026 hPa | 0 mm | - | 0 W/m² | - |
| 1777337280 | 17.22° C | 48% | 1026 hPa | 0 mm | - | 0 W/m² | - |
* Rain latest hour (hover to see other rain measurements)
** Current wind speed in m/s (hover to see current wind gust speed)